Date,TemperatureHighF,TemperatureAvgF,TemperatureLowF,DewpointHighF,DewpointAvgF,DewpointLowF,HumidityHigh,HumidityAvg,HumidityLow,PressureMaxIn,PressureMinIn,WindSpeedMaxMPH,WindSpeedAvgMPH,GustSpeedMaxMPH,PrecipitationSumIn
2013-2-1,31,21,13,-100,-100,-100,0,0,100,0.00,40.00,0,-999,0,0.00
2013-2-2,37,28,20,-100,-100,-100,0,0,100,0.00,40.00,0,-999,0,0.01
2013-2-3,32,26,22,-100,-100,-100,0,0,100,0.00,40.00,0,-999,0,0.00
2013-2-4,36,26,21,-100,-100,-100,0,0,100,0.00,40.00,0,-999,0,0.01
2013-2-5,44,32,25,-100,-100,-100,0,0,100,0.00,40.00,0,-999,0,0.00
2013-2-6,34,26,18,-100,-100,-100,0,0,100,0.00,40.00,0,-999,0,0.00
2013-2-7,36,26,18,-100,-100,-100,0,0,100,0.00,40.00,0,-999,0,0.01
2013-2-8,31,26,22,-100,-100,-100,0,0,100,0.00,40.00,0,-999,0,0.01
2013-2-9,20,15,10,-100,-100,-100,0,0,100,0.00,40.00,0,-999,0,0.02
2013-2-10,20,13,10,-100,-100,-100,0,0,100,0.00,40.00,0,-999,0,0.02
2013-2-11,19,10,4,-100,-100,-100,0,0,100,0.00,40.00,0,-999,0,0.01
2013-2-12,25,13,2,-100,-100,-100,0,0,100,0.00,40.00,0,-999,0,0.00
2013-2-13,33,23,11,-100,-100,-100,0,0,100,0.00,40.00,0,-999,0,0.01
2013-2-14,30,20,13,-100,-100,-100,0,0,100,0.00,40.00,0,-999,0,0.00
2013-2-15,25,19,12,-100,-100,-100,0,0,100,0.00,40.00,0,-999,0,0.00
2013-2-16,36,26,18,-100,-100,-100,0,0,100,0.00,40.00,0,-999,0,0.00
2013-2-17,35,27,21,-100,-100,-100,0,0,100,0.00,40.00,0,-999,0,0.00
2013-2-18,30,19,6,-100,-100,-100,0,0,100,0.00,40.00,0,-999,0,0.00
2013-2-19,32,24,18,-100,-100,-100,0,0,100,0.00,40.00,0,-999,0,0.00
2013-2-20,24,19,11,-100,-100,-100,0,0,100,0.00,40.00,0,-999,0,0.01
2013-2-21,25,17,11,-100,-100,-100,0,0,100,0.00,40.00,0,-999,0,0.01
2013-2-22,20,12,3,-100,-100,-100,0,0,100,0.00,40.00,0,-999,0,0.01
2013-2-23,28,16,3,-100,-100,-100,0,0,100,0.00,40.00,0,-999,0,0.02
2013-2-24,20,10,-1,-100,-100,-100,0,0,100,0.00,40.00,0,-999,0,0.01
2013-2-25,29,20,10,-100,-100,-100,0,0,100,0.00,40.00,0,-999,0,0.00
2013-2-26,19,11,5,-100,-100,-100,0,0,100,0.00,40.00,0,-999,0,0.00
2013-2-27,25,13,4,-100,-100,-100,0,0,100,0.00,40.00,0,-999,0,0.01
2013-2-28,31,19,9,-100,-100,-100,0,0,100,0.00,40.00,0,-999,0,0.00